Regional Weather Roundup
Issued by NWS

Home | Current Version | Previous Version | Graphics & Text | Print | Product List | Glossary On
Versions: 1 2 3 4 5 6 7 8 9 10 11 12 13 14 15 16 17 18 19 20 21 22 23 24 25 26 27 28 29 30 31 32 33 34 35 36 37 38 39 40 41 42 43 44 45 46 47 48 49 50
000
ASUS43 KMKX 011600
RWRWI

WISCONSIN REGIONAL WEATHER ROUNDUP
NATIONAL WEATHER SERVICE MILWAUKEE/SULLIVAN WI
1100 AM CDT TUE SEP 01 2015

NOTE: "FAIR" INDICATES FEW OR NO CLOUDS BELOW 12,000 FEET WITH NO
SIGNIFICANT WEATHER AND/OR OBSTRUCTIONS TO VISIBILITY.

WIZ001-002-006>008-014>016-023>028-011700-
NORTHWEST WISCONSIN

CITY           SKY/WX    TMP DP  RH WIND       PRES   REMARKS
SUPERIOR ARPT  CLOUDY    74  71  87 W3        29.90S
ASHLAND        LGT RAIN  75  73  93 SW8       29.91S
HAYWARD        PTSUNNY   77  69  76 SW8       29.94S
SIREN          PTSUNNY   77  68  75 W6        29.93S
CUMBERLAND     MOSUNNY   75  70  83 S6        29.95S
RICE LAKE      MOSUNNY   78  69  73 S3        29.95F HX  80
CHETEK         MOSUNNY  N/A N/A N/A CALM      29.95S
LADYSMITH      PTSUNNY   76  71  82 S6        29.98S
EAU CLAIRE     NOT AVBL
MENOMONIE      SUNNY     80  72  77 S7        29.94F HX  83
NEW RICHMOND   PTSUNNY   78  68  72 SW5       29.94
OSCEOLA        PTSUNNY   78  73  84 S6        29.96R
$$

WIZ003>005-009-010-017-018-011700-
NORTH CENTRAL WISCONSIN

CITY           SKY/WX    TMP DP  RH WIND       PRES   REMARKS
MANITOWISH WTR MOSUNNY   76  69  78 S12       29.97S
ARBOR VITAE    MOSUNNY   77  71  80 S8        29.98F
WOODRUFF       MOSUNNY   77  71  80 S8        29.98F
RHINELANDER    MOSUNNY   77  69  76 VRB6      30.00S
EAGLE RIVER    SUNNY     77  67  72 SW5       29.98F
LAND O LAKES   MOSUNNY   78  67  68 S9        29.99F HX  80
PHILLIPS       CLOUDY    72  70  92 SW6       29.98R
TOMAHAWK       CLOUDY    72  70  93 CALM      30.00S FOG
MEDFORD        PTSUNNY   75  71  88 S6        30.00R
MERRILL        PTSUNNY   76  72  88 W5        30.00S
$$

WIZ029-030-035-036-043>047-011700-
CENTRAL WISCONSIN

CITY           SKY/WX    TMP DP  RH WIND       PRES   REMARKS
WAUSAU         MOSUNNY   78  71  79 S7        29.98S HX  80
MOSINEE        NOT AVBL
MARSHFIELD     MOSUNNY   81  70  69 SW6       29.99S HX  84
STEVENS POINT  SUNNY     78  70  77 SW8       30.00S HX  80
WAUPACA        SUNNY     82  74  77 CALM      29.99F HX  87
WAUTOMA        NOT AVBL
WISC RAPIDS    SUNNY     82  70  66 CALM      30.00S HX  86
CAMP DOUGLAS   NOT AVBL
$$

WIZ011>013-019>022-031-037>040-048>050-011700-
NORTHEAST WISCONSIN

CITY           SKY/WX    TMP DP  RH WIND       PRES   REMARKS
ANTIGO         CLOUDY    76  71  84 SW3       30.01S
SHAWANO        MOSUNNY   80  72  75 SW8       29.99S HX  84
OCONTO         SUNNY     79  75  87 W3        29.98S HX  82
STURGEON BAY   MOSUNNY   81  72  74 S7        30.01S HX  84
GREEN BAY      SUNNY     80  72  76 SW7       29.99S HAZE    HX  84
MANITOWOC      NOT AVBL
APPLETON       MOSUNNY   79  72  78 SW7       29.99S HX  82
CLINTONVILLE   SUNNY     79  72  78 SW7       29.99S HX  82
OSHKOSH        SUNNY     81  73  76 SW5       30.00S HX  86
$$

WIZ032>034-041-042-053>061-011700-
SOUTHWEST WISCONSIN

CITY           SKY/WX    TMP DP  RH WIND       PRES   REMARKS
LA CROSSE      SUNNY     81  70  69 S9        29.95F HX  84
SPARTA         MOSUNNY   81  68  63 CALM      29.98S HX  84
VIROQUA          N/A     78  74  85 S5        30.00S HX  81
BOSCOBEL       SUNNY     85  72  65 SW7       29.98F HX  91
PRAIRIE DU CHI SUNNY     80  69  70 S5        29.98S HX  83
PLATTEVILLE    SUNNY     80  74  83 S8        30.01F HX  84
$$

WIZ056-057-062-063-064-067-068-011700-
SOUTH CENTRAL WISCONSIN

CITY           SKY/WX    TMP DP  RH WIND       PRES   REMARKS
REEDSBURG      MOSUNNY   81  72  73 S7        29.99F HX  85
BARABOO/DELLS  SUNNY     82  68  63 SW7       30.00S HX  85
LONE ROCK      NOT AVBL
MINERAL POINT  SUNNY     82  73  74 S8        30.02S HX  88
MADISON        MOSUNNY   83  70  64 SW8       30.01S HX  87
MIDDLETON      SUNNY     84  69  60 SW7       30.02S HX  88
WATERTOWN      SUNNY     81  76  82 SW7       30.01F HX  88
MONROE         SUNNY     81  70  69 SW7       30.03F HX  84
JANESVILLE     SUNNY     82  72  69 SW6       30.02S HX  87
$$

WIZ051-052-058>065-066-070>072-011700-
SOUTHEAST WISCONSIN

CITY           SKY/WX    TMP DP  RH WIND       PRES   REMARKS
MILWAUKEE      SUNNY     83  72  69 SW8       30.02F HX  88
WAUKESHA       SUNNY     81  70  69 SW3       30.04S HX  84
MILWAUKEE/TIMM NOT AVBL
RACINE         SUNNY     84  72  67 SW7       30.04F HX  89
BURLINGTON     SUNNY     81  71  71 S3        30.03F HX  84
KENOSHA        SUNNY     83  72  69 SW8       30.04S HX  88
FOND DU LAC    SUNNY     81  74  79 VRB7      30.01S HX  86
SHEBOYGAN      SUNNY     82  74  76 S8        30.00F HX  88
WEST BEND      SUNNY     81  70  69 S6        30.02S HX  84
JUNEAU         SUNNY     78  72  82 SW7       30.03S HX  80
$$

LSZ147-162-011700-
LAKE SUPERIOR

STATION/POSITION TIME  TEMP    WIND        PRES    WAVE
                       AIR SEA DIR/SP/G            HT/PER
                 (UTC) (F)     (DEG/KT/KT) (MB)    (FT/S)
W MID LAKE BUOY  1450   59 54  230/  6/  6 1011.9F   1
DEVILS ISLAND    1500   67     240/ 10/ 11 1012.1S
PORT WING        1500   70     260/  4/  8 1012.5
SAXON HARBOR     1500   78     200/  4/  8 1012.2S
$$

LMZ867-665-643>646-011700-
LAKE MICHIGAN

STATION/POSITION TIME  TEMP    WIND        PRES    WAVE
                       AIR SEA DIR/SP/G            HT/PER
                 (UTC) (F)     (DEG/KT/KT) (MB)    (FT/S)
CHAMBERS ISLAND  1500   75     190/  6/  9 1015.2S
S GREEN BAY BUOY 1530   70 64  190/  2/  2 1016.6F
N MID LAKE BUOY  1450   66 65  190/ 14/ 14 1015.2F   2/ 4
NORTHPORT PIER   1500   67     150/  8/ 10 1015.2F
SISTER BAY       1504   80     180/  7/  9   N/A
ALGOMA LAKESHORE 1514             CALM       N/A
KEWAUNEE LAKESHO 1500   51     160/  8/  9 1015.0S
SHEBOYGAN LAKESH 1500   66     170/ 17/ 18 1016.2F
PORT WASHINGTON  1500   62     200/  4/  6 1017.3S
ATWATER BUOY     1500   58 53  150/  8/ 10 1017.9F
MILWAUKEE LAKESH 1510   65     350/  1/  1   N/A
S MID LAKE BUOY  1450   71 70  180/ 10/ 12 1017.2S   1
KENOSHA   LAKESH 1500   67     180/ 10/ 11 1016.9S
$$

TC  - TEMPERATURE IN CELSIUS
VSB - VISIBILITY IN STATUTE MILES
WCI - WIND CHILL INDEX
HX  - HEAT INDEX



USA.gov is the U.S. government's official web portal to all federal, state and local government web resources and services.